Time,TemperatureF,DewpointF,PressureIn,WindDirection,WindDirectionDegrees,WindSpeedMPH,WindSpeedGustMPH,Humidity,HourlyPrecipIn,Conditions,Clouds,dailyrainin,SolarRadiationWatts/m^2,SoftwareType,DateUTC
2013-06-16 00:02:00,66.0,64.0,-100.00,North,0,1.0,2.0,92,0.00,,,0.00,0.000000,,2013-06-16 04:02:00,
2013-06-16 00:23:00,66.0,64.0,-100.00,North,0,1.0,2.0,92,0.00,,,0.00,0.000000,,2013-06-16 04:23:00,
2013-06-16 00:34:00,66.0,64.0,-100.00,North,0,1.0,2.0,92,0.00,,,0.00,0.000000,,2013-06-16 04:34:00,
2013-06-16 00:43:00,66.0,64.0,-100.00,North,0,1.0,2.0,92,0.00,,,0.00,0.000000,,2013-06-16 04:43:00,
2013-06-16 00:53:00,66.0,64.0,-100.00,North,0,1.0,2.0,92,0.00,,,0.00,0.000000,,2013-06-16 04:53:00,
2013-06-16 01:22:00,65.0,63.0,-100.00,ENE,61,1.0,2.0,94,0.00,,,0.00,0.000000,,2013-06-16 05:22:00,
2013-06-16 01:34:00,65.0,63.0,-100.00,ENE,61,1.0,2.0,94,0.00,,,0.00,0.000000,,2013-06-16 05:34:00,
2013-06-16 01:43:00,65.0,63.0,-100.00,ENE,61,1.0,2.0,94,0.00,,,0.00,0.000000,,2013-06-16 05:43:00,
2013-06-16 01:52:00,65.0,63.0,-100.00,ENE,61,1.0,2.0,94,0.00,,,0.00,0.000000,,2013-06-16 05:52:00,
2013-06-16 02:01:00,65.0,63.0,-100.00,ENE,61,1.0,2.0,94,0.00,,,0.00,0.000000,,2013-06-16 06:01:00,
2013-06-16 02:23:00,63.0,62.0,-100.00,North,357,1.0,2.0,97,0.00,,,0.00,0.000000,,2013-06-16 06:23:00,
2013-06-16 02:33:00,63.0,62.0,-100.00,North,357,1.0,2.0,97,0.00,,,0.00,0.000000,,2013-06-16 06:33:00,
2013-06-16 02:43:00,63.0,62.0,-100.00,North,357,1.0,2.0,97,0.00,,,0.00,0.000000,,2013-06-16 06:43:00,
2013-06-16 02:52:00,63.0,62.0,-100.00,North,357,1.0,2.0,97,0.00,,,0.00,0.000000,,2013-06-16 06:52:00,
2013-06-16 03:01:00,63.0,62.0,-100.00,North,357,1.0,2.0,97,0.00,,,0.00,0.000000,,2013-06-16 07:01:00,
2013-06-16 03:02:00,62.0,61.0,-100.00,SE,138,1.0,3.0,96,0.00,,,0.00,0.000000,,2013-06-16 07:02:00,
2013-06-16 03:23:00,62.0,61.0,-100.00,SE,138,1.0,3.0,96,0.00,,,0.00,0.000000,,2013-06-16 07:23:00,
2013-06-16 03:33:00,62.0,61.0,-100.00,SE,138,1.0,3.0,96,0.00,,,0.00,0.000000,,2013-06-16 07:33:00,
2013-06-16 03:43:00,62.0,61.0,-100.00,SE,138,1.0,3.0,96,0.00,,,0.00,0.000000,,2013-06-16 07:43:00,
2013-06-16 03:53:00,62.0,61.0,-100.00,SE,138,1.0,3.0,96,0.00,,,0.00,0.000000,,2013-06-16 07:53:00,
2013-06-16 04:02:00,61.0,60.0,-100.00,SSW,195,1.0,2.0,97,0.00,,,0.00,0.000000,,2013-06-16 08:02:00,
2013-06-16 04:22:00,61.0,60.0,-100.00,SSW,195,1.0,2.0,97,0.00,,,0.00,0.000000,,2013-06-16 08:22:00,
2013-06-16 04:34:00,61.0,60.0,-100.00,SSW,195,1.0,2.0,97,0.00,,,0.00,0.000000,,2013-06-16 08:34:00,
2013-06-16 04:43:00,61.0,60.0,-100.00,SSW,195,1.0,2.0,97,0.00,,,0.00,0.000000,,2013-06-16 08:43:00,
2013-06-16 04:54:00,61.0,60.0,-100.00,SSW,195,1.0,2.0,97,0.00,,,0.00,0.000000,,2013-06-16 08:54:00,
2013-06-16 05:02:00,60.0,59.0,-100.00,NW,326,1.0,2.0,98,0.00,,,0.00,0.000000,,2013-06-16 09:02:00,
2013-06-16 05:22:00,60.0,59.0,-100.00,NW,326,1.0,2.0,98,0.00,,,0.00,0.000000,,2013-06-16 09:22:00,
2013-06-16 05:33:00,60.0,59.0,-100.00,NW,326,1.0,2.0,98,0.00,,,0.00,0.000000,,2013-06-16 09:33:00,
2013-06-16 05:43:00,60.0,59.0,-100.00,NW,326,1.0,2.0,98,0.00,,,0.00,0.000000,,2013-06-16 09:43:00,
2013-06-16 05:52:00,60.0,59.0,-100.00,NW,326,1.0,2.0,98,0.00,,,0.00,0.000000,,2013-06-16 09:52:00,
2013-06-16 06:02:00,60.0,59.0,-100.00,NNW,334,2.0,4.0,98,0.00,,,0.00,0.000000,,2013-06-16 10:02:00,
2013-06-16 06:22:00,60.0,59.0,-100.00,NNW,334,2.0,4.0,98,0.00,,,0.00,0.000000,,2013-06-16 10:22:00,
2013-06-16 06:33:00,60.0,59.0,-100.00,NNW,334,2.0,4.0,98,0.00,,,0.00,0.000000,,2013-06-16 10:33:00,
2013-06-16 06:43:00,60.0,59.0,-100.00,NNW,334,2.0,4.0,98,0.00,,,0.00,0.000000,,2013-06-16 10:43:00,
2013-06-16 06:54:00,60.0,59.0,-100.00,NNW,334,2.0,4.0,98,0.00,,,0.00,0.000000,,2013-06-16 10:54:00,
2013-06-16 07:02:00,60.0,59.0,-100.00,NNE,17,2.0,3.0,98,0.00,,,0.00,6.000000,,2013-06-16 11:02:00,
2013-06-16 07:22:00,60.0,59.0,-100.00,NNE,17,2.0,3.0,98,0.00,,,0.00,6.000000,,2013-06-16 11:22:00,
2013-06-16 07:34:00,60.0,59.0,-100.00,NNE,17,2.0,3.0,98,0.00,,,0.00,6.000000,,2013-06-16 11:34:00,
2013-06-16 07:43:00,60.0,59.0,-100.00,NNE,17,2.0,3.0,98,0.00,,,0.00,6.000000,,2013-06-16 11:43:00,
2013-06-16 07:53:00,60.0,59.0,-100.00,NNE,17,2.0,3.0,98,0.00,,,0.00,6.000000,,2013-06-16 11:53:00,
2013-06-16 08:22:00,63.0,62.0,-100.00,NNW,327,2.0,3.0,95,0.00,,,0.00,48.000000,,2013-06-16 12:22:00,
2013-06-16 08:33:00,63.0,62.0,-100.00,NNW,327,2.0,3.0,95,0.00,,,0.00,48.000000,,2013-06-16 12:33:00,
2013-06-16 08:43:00,63.0,62.0,-100.00,NNW,327,2.0,3.0,95,0.00,,,0.00,48.000000,,2013-06-16 12:43:00,
2013-06-16 08:53:00,63.0,62.0,-100.00,NNW,327,2.0,3.0,95,0.00,,,0.00,48.000000,,2013-06-16 12:53:00,
2013-06-16 09:01:00,63.0,62.0,-100.00,NNW,327,2.0,3.0,95,0.00,,,0.00,48.000000,,2013-06-16 13:01:00,
2013-06-16 09:02:00,69.0,64.0,-100.00,North,4,2.0,3.0,83,0.00,,,0.00,220.000000,,2013-06-16 13:02:00,
2013-06-16 09:22:00,69.0,64.0,-100.00,North,4,2.0,3.0,83,0.00,,,0.00,220.000000,,2013-06-16 13:22:00,
2013-06-16 09:34:00,69.0,64.0,-100.00,North,4,2.0,3.0,83,0.00,,,0.00,220.000000,,2013-06-16 13:34:00,
2013-06-16 09:43:00,69.0,64.0,-100.00,North,4,2.0,3.0,83,0.00,,,0.00,220.000000,,2013-06-16 13:43:00,
2013-06-16 09:54:00,69.0,64.0,-100.00,North,4,2.0,3.0,83,0.00,,,0.00,220.000000,,2013-06-16 13:54:00,
2013-06-16 10:02:00,78.0,67.0,-100.00,ENE,68,1.0,3.0,70,0.00,,,0.00,470.000000,,2013-06-16 14:02:00,
2013-06-16 10:34:00,78.0,67.0,-100.00,ENE,68,1.0,3.0,70,0.00,,,0.00,470.000000,,2013-06-16 14:34:00,
2013-06-16 10:44:00,78.0,67.0,-100.00,ENE,68,1.0,3.0,70,0.00,,,0.00,470.000000,,2013-06-16 14:44:00,
2013-06-16 10:53:00,78.0,67.0,-100.00,ENE,68,1.0,3.0,70,0.00,,,0.00,470.000000,,2013-06-16 14:53:00,
2013-06-16 11:02:00,81.0,68.0,-100.00,SSE,160,2.0,5.0,64,0.00,,,0.00,654.000000,,2013-06-16 15:02:00,
2013-06-16 11:34:00,81.0,68.0,-100.00,SSE,160,2.0,5.0,64,0.00,,,0.00,654.000000,,2013-06-16 15:34:00,
2013-06-16 11:43:00,81.0,68.0,-100.00,SSE,160,2.0,5.0,64,0.00,,,0.00,654.000000,,2013-06-16 15:43:00,
2013-06-16 11:53:00,81.0,68.0,-100.00,SSE,160,2.0,5.0,64,0.00,,,0.00,654.000000,,2013-06-16 15:53:00,
2013-06-16 12:02:00,83.0,69.0,-100.00,SSE,157,2.0,5.0,63,0.00,,,0.00,613.000000,,2013-06-16 16:02:00,
2013-06-16 12:23:00,83.0,69.0,-100.00,SSE,157,2.0,5.0,63,0.00,,,0.00,613.000000,,2013-06-16 16:23:00,
2013-06-16 12:33:00,83.0,69.0,-100.00,SSE,157,2.0,5.0,63,0.00,,,0.00,613.000000,,2013-06-16 16:33:00,
2013-06-16 12:43:00,83.0,69.0,-100.00,SSE,157,2.0,5.0,63,0.00,,,0.00,613.000000,,2013-06-16 16:43:00,
2013-06-16 12:53:00,83.0,69.0,-100.00,SSE,157,2.0,5.0,63,0.00,,,0.00,613.000000,,2013-06-16 16:53:00,
2013-06-16 14:22:00,87.0,65.0,-100.00,South,173,2.0,5.0,49,0.00,,,0.00,860.000000,,2013-06-16 18:22:00,
2013-06-16 14:34:00,87.0,65.0,-100.00,South,173,2.0,5.0,49,0.00,,,0.00,860.000000,,2013-06-16 18:34:00,
2013-06-16 14:43:00,87.0,65.0,-100.00,South,173,2.0,5.0,49,0.00,,,0.00,860.000000,,2013-06-16 18:43:00,
2013-06-16 14:52:00,87.0,65.0,-100.00,South,173,2.0,5.0,49,0.00,,,0.00,860.000000,,2013-06-16 18:52:00,
2013-06-16 15:01:00,87.0,65.0,-100.00,South,173,2.0,5.0,49,0.00,,,0.00,860.000000,,2013-06-16 19:01:00,
2013-06-16 15:02:00,88.0,66.0,-100.00,WNW,293,3.0,6.0,49,0.00,,,0.00,958.000000,,2013-06-16 19:02:00,
2013-06-16 15:22:00,88.0,66.0,-100.00,WNW,293,3.0,6.0,49,0.00,,,0.00,958.000000,,2013-06-16 19:22:00,
2013-06-16 15:34:00,88.0,66.0,-100.00,WNW,293,3.0,6.0,49,0.00,,,0.00,958.000000,,2013-06-16 19:34:00,
2013-06-16 15:43:00,88.0,66.0,-100.00,WNW,293,3.0,6.0,49,0.00,,,0.00,958.000000,,2013-06-16 19:43:00,
2013-06-16 15:54:00,88.0,66.0,-100.00,WNW,293,3.0,6.0,49,0.00,,,0.00,958.000000,,2013-06-16 19:54:00,
2013-06-16 16:02:00,87.0,69.0,-100.00,SSW,195,2.0,4.0,56,0.00,,,0.00,768.000000,,2013-06-16 20:02:00,
2013-06-16 16:22:00,87.0,69.0,-100.00,SSW,195,2.0,4.0,56,0.00,,,0.00,768.000000,,2013-06-16 20:22:00,
2013-06-16 16:33:00,87.0,69.0,-100.00,SSW,195,2.0,4.0,56,0.00,,,0.00,768.000000,,2013-06-16 20:33:00,
2013-06-16 16:43:00,87.0,69.0,-100.00,SSW,195,2.0,4.0,56,0.00,,,0.00,768.000000,,2013-06-16 20:43:00,
2013-06-16 16:53:00,87.0,69.0,-100.00,SSW,195,2.0,4.0,56,0.00,,,0.00,768.000000,,2013-06-16 20:53:00,
2013-06-16 17:22:00,87.0,69.0,-100.00,SSW,203,1.0,3.0,56,0.00,,,0.00,503.000000,,2013-06-16 21:22:00,
2013-06-16 17:33:00,87.0,69.0,-100.00,SSW,203,1.0,3.0,56,0.00,,,0.00,503.000000,,2013-06-16 21:33:00,
2013-06-16 17:42:00,87.0,69.0,-100.00,SSW,203,1.0,3.0,56,0.00,,,0.00,503.000000,,2013-06-16 21:42:00,
2013-06-16 17:53:00,87.0,69.0,-100.00,SSW,203,1.0,3.0,56,0.00,,,0.00,503.000000,,2013-06-16 21:53:00,
2013-06-16 18:01:00,87.0,69.0,-100.00,SSW,203,1.0,3.0,56,0.00,,,0.00,503.000000,,2013-06-16 22:01:00,
2013-06-16 18:02:00,83.0,68.0,-100.00,SSE,159,1.0,3.0,61,0.00,,,0.00,328.000000,,2013-06-16 22:02:00,
2013-06-16 18:22:00,83.0,68.0,-100.00,SSE,159,1.0,3.0,61,0.00,,,0.00,328.000000,,2013-06-16 22:22:00,
2013-06-16 18:32:00,83.0,68.0,-100.00,SSE,159,1.0,3.0,61,0.00,,,0.00,328.000000,,2013-06-16 22:32:00,
2013-06-16 18:42:00,83.0,68.0,-100.00,SSE,159,1.0,3.0,61,0.00,,,0.00,328.000000,,2013-06-16 22:42:00,
2013-06-16 18:52:00,83.0,68.0,-100.00,SSE,159,1.0,3.0,61,0.00,,,0.00,328.000000,,2013-06-16 22:52:00,
2013-06-16 19:02:00,82.0,70.0,-100.00,South,185,1.0,2.0,67,0.00,,,0.00,195.000000,,2013-06-16 23:02:00,
2013-06-16 19:22:00,82.0,70.0,-100.00,South,185,1.0,2.0,67,0.00,,,0.00,195.000000,,2013-06-16 23:22:00,
2013-06-16 19:32:00,82.0,70.0,-100.00,South,185,1.0,2.0,67,0.00,,,0.00,195.000000,,2013-06-16 23:32:00,
2013-06-16 19:42:00,82.0,70.0,-100.00,South,185,1.0,2.0,67,0.00,,,0.00,195.000000,,2013-06-16 23:42:00,
2013-06-16 19:52:00,82.0,70.0,-100.00,South,185,1.0,2.0,67,0.00,,,0.00,195.000000,,2013-06-16 23:52:00,
2013-06-16 20:02:00,78.0,69.0,-100.00,South,172,2.0,2.0,74,0.00,,,0.00,80.000000,,2013-06-17 00:02:00,
2013-06-16 20:22:00,78.0,69.0,-100.00,South,172,2.0,2.0,74,0.00,,,0.00,80.000000,,2013-06-17 00:22:00,
2013-06-16 20:32:00,78.0,69.0,-100.00,South,172,2.0,2.0,74,0.00,,,0.00,80.000000,,2013-06-17 00:32:00,
2013-06-16 20:43:00,78.0,69.0,-100.00,South,172,2.0,2.0,74,0.00,,,0.00,80.000000,,2013-06-17 00:43:00,
2013-06-16 20:52:00,78.0,69.0,-100.00,South,172,2.0,2.0,74,0.00,,,0.00,80.000000,,2013-06-17 00:52:00,
2013-06-16 21:02:00,76.0,69.0,-100.00,SSE,157,1.0,2.0,80,0.00,,,0.00,8.000000,,2013-06-17 01:02:00,
2013-06-16 21:22:00,76.0,69.0,-100.00,SSE,157,1.0,2.0,80,0.00,,,0.00,8.000000,,2013-06-17 01:22:00,
2013-06-16 21:32:00,76.0,69.0,-100.00,SSE,157,1.0,2.0,80,0.00,,,0.00,8.000000,,2013-06-17 01:32:00,
2013-06-16 21:43:00,76.0,69.0,-100.00,SSE,157,1.0,2.0,80,0.00,,,0.00,8.000000,,2013-06-17 01:43:00,
2013-06-16 21:53:00,76.0,69.0,-100.00,SSE,157,1.0,2.0,80,0.00,,,0.00,8.000000,,2013-06-17 01:53:00,
2013-06-16 22:02:00,75.0,69.0,-100.00,SE,128,1.0,2.0,83,0.00,,,0.00,0.000000,,2013-06-17 02:02:00,
2013-06-16 22:22:00,75.0,69.0,-100.00,SE,128,1.0,2.0,83,0.00,,,0.00,0.000000,,2013-06-17 02:22:00,
2013-06-16 22:34:00,75.0,69.0,-100.00,SE,128,1.0,2.0,83,0.00,,,0.00,0.000000,,2013-06-17 02:34:00,
2013-06-16 22:43:00,75.0,69.0,-100.00,SE,128,1.0,2.0,83,0.00,,,0.00,0.000000,,2013-06-17 02:43:00,
2013-06-16 22:53:00,75.0,69.0,-100.00,SE,128,1.0,2.0,83,0.00,,,0.00,0.000000,,2013-06-17 02:53:00,
2013-06-16 23:02:00,74.0,71.0,-100.00,SSE,156,1.0,2.0,89,0.01,,,0.01,0.000000,,2013-06-17 03:02:00,
2013-06-16 23:22:00,74.0,71.0,-100.00,SSE,156,1.0,2.0,89,0.01,,,0.01,0.000000,,2013-06-17 03:22:00,
2013-06-16 23:33:00,74.0,71.0,-100.00,SSE,156,1.0,2.0,89,0.01,,,0.01,0.000000,,2013-06-17 03:33:00,
2013-06-16 23:44:00,74.0,71.0,-100.00,SSE,156,1.0,2.0,89,0.01,,,0.01,0.000000,,2013-06-17 03:44:00,
2013-06-16 23:54:00,74.0,71.0,-100.00,SSE,156,1.0,2.0,89,0.01,,,0.01,0.000000,,2013-06-17 03:54:00,